<?xml version='1.0' encoding='UTF-8'?>
<gpx xmlns="http://www.topografix.com/GPX/1/1" creator="www.balnam.be" version="1.1" xmlns:xsi="http://www.w3.org/2001/XMLSchema-instance" xsi:schemaLocation="http://www.topografix.com/GPX/1/1 http://www.topografix.com/GPX/1/1/gpx.xsd">
<trk>
<name>lcrfm10</name>
<cmt>s</cmt>
<desc>Fize-le-Marsal Chemin n°10 </desc>
<link href="https://chemins.be/fizelemarsal/chemin/10"/><trkseg>
<trkpt lat="50.697185" lon="5.389727"><time>2026-05-02T22:57:47Z</time></trkpt>
<trkpt lat="50.696062" lon="5.390943"><time>2026-05-02T23:07:47Z</time></trkpt>
<trkpt lat="50.694295" lon="5.392903"><time>2026-05-02T23:17:47Z</time></trkpt>
</trkseg>
</trk>
<trk>
<name>lcrfm11</name>
<cmt>v</cmt>
<desc>Fize-le-Marsal Chemin n°11 </desc>
<link href="https://chemins.be/fizelemarsal/chemin/11"/><trkseg>
<trkpt lat="50.705872" lon="5.388483"><time>2026-05-02T22:57:47Z</time></trkpt>
<trkpt lat="50.706565" lon="5.387700"><time>2026-05-02T23:07:47Z</time></trkpt>
<trkpt lat="50.706898" lon="5.386852"><time>2026-05-02T23:17:47Z</time></trkpt>
</trkseg>
</trk>
<trk>
<name>lcrfm12</name>
<cmt>q</cmt>
<desc>Fize-le-Marsal Sentier n°12 </desc>
<link href="https://chemins.be/fizelemarsal/sentier/12"/><trkseg>
<trkpt lat="50.698844" lon="5.387930"><time>2026-05-02T22:57:47Z</time></trkpt>
<trkpt lat="50.699181" lon="5.385774"><time>2026-05-02T23:07:47Z</time></trkpt>
<trkpt lat="50.701889" lon="5.381182"><time>2026-05-02T23:17:47Z</time></trkpt>
<trkpt lat="50.704063" lon="5.378757"><time>2026-05-02T23:27:47Z</time></trkpt>
<trkpt lat="50.704889" lon="5.376869"><time>2026-05-02T23:37:47Z</time></trkpt>
<trkpt lat="50.705568" lon="5.373248"><time>2026-05-02T23:47:47Z</time></trkpt>
<trkpt lat="50.710173" lon="5.367079"><time>2026-05-02T23:57:47Z</time></trkpt>
</trkseg>
</trk>
<trk>
<name>lcrfm13</name>
<cmt>q</cmt>
<desc>Fize-le-Marsal Sentier n°13 </desc>
<link href="https://chemins.be/fizelemarsal/sentier/13"/><trkseg>
<trkpt lat="50.702950" lon="5.382775"><time>2026-05-02T22:57:47Z</time></trkpt>
<trkpt lat="50.702026" lon="5.376563"><time>2026-05-02T23:07:47Z</time></trkpt>
<trkpt lat="50.701856" lon="5.371274"><time>2026-05-02T23:17:47Z</time></trkpt>
<trkpt lat="50.701931" lon="5.370737"><time>2026-05-02T23:27:47Z</time></trkpt>
</trkseg>
</trk>
<trk>
<name>lcrfm14</name>
<cmt>q</cmt>
<desc>Fize-le-Marsal Sentier n°14 </desc>
<link href="https://chemins.be/fizelemarsal/sentier/14"/><trkseg>
<trkpt lat="50.705322" lon="5.381552"><time>2026-05-02T22:57:47Z</time></trkpt>
<trkpt lat="50.701863" lon="5.381198"><time>2026-05-02T23:07:47Z</time></trkpt>
<trkpt lat="50.699141" lon="5.380082"><time>2026-05-02T23:17:47Z</time></trkpt>
<trkpt lat="50.695915" lon="5.379760"><time>2026-05-02T23:27:47Z</time></trkpt>
</trkseg>
</trk>
<trk>
<name>lcrfm15</name>
<cmt>q</cmt>
<desc>Fize-le-Marsal Sentier n°15 </desc>
<link href="https://chemins.be/fizelemarsal/sentier/15"/><trkseg>
<trkpt lat="50.710818" lon="5.391712"><time>2026-05-02T22:57:47Z</time></trkpt>
<trkpt lat="50.709684" lon="5.388494"><time>2026-05-02T23:07:47Z</time></trkpt>
</trkseg>
</trk>
<trk>
<name>lcrfm16</name>
<cmt>v</cmt>
<desc>Fize-le-Marsal Sentier n°16 </desc>
<link href="https://chemins.be/fizelemarsal/sentier/16"/><trkseg>
<trkpt lat="50.706478" lon="5.388817"><time>2026-05-02T22:57:47Z</time></trkpt>
<trkpt lat="50.706413" lon="5.389265"><time>2026-05-02T23:07:47Z</time></trkpt>
<trkpt lat="50.706479" lon="5.389746"><time>2026-05-02T23:17:47Z</time></trkpt>
</trkseg></trk>
<trk>
<name>lcrfm16</name>
<cmt>q</cmt>
<desc>Fize-le-Marsal Sentier n°16 </desc>
<link href="https://chemins.be/fizelemarsal/sentier/16"/><trkseg>
<trkpt lat="50.706479" lon="5.389746"><time>2026-05-02T23:17:47Z</time></trkpt>
<trkpt lat="50.706445" lon="5.391095"><time>2026-05-02T23:27:47Z</time></trkpt>
<trkpt lat="50.704787" lon="5.392774"><time>2026-05-02T23:37:47Z</time></trkpt>
</trkseg>
</trk>
<trk>
<name>lcrfm17</name>
<cmt>q</cmt>
<desc>Fize-le-Marsal Sentier n°17 </desc>
<link href="https://chemins.be/fizelemarsal/sentier/17"/><trkseg>
<trkpt lat="50.704868" lon="5.391819"><time>2026-05-02T22:57:47Z</time></trkpt>
<trkpt lat="50.704333" lon="5.391439"><time>2026-05-02T23:07:47Z</time></trkpt>
<trkpt lat="50.703924" lon="5.390945"><time>2026-05-02T23:17:47Z</time></trkpt>
<trkpt lat="50.702555" lon="5.389357"><time>2026-05-02T23:27:47Z</time></trkpt>
<trkpt lat="50.702113" lon="5.389116"><time>2026-05-02T23:37:47Z</time></trkpt>
</trkseg>
</trk>
<trk>
<name>lcrfm18</name>
<cmt>q</cmt>
<desc>Fize-le-Marsal Sentier n°18 Rue Martin Daenen</desc>
<link href="https://chemins.be/fizelemarsal/sentier/18"/><trkseg>
<trkpt lat="50.703675" lon="5.397418"><time>2026-05-02T22:57:47Z</time></trkpt>
<trkpt lat="50.702312" lon="5.393420"><time>2026-05-02T23:07:47Z</time></trkpt>
</trkseg></trk>
<trk>
<name>lcrfm18</name>
<cmt>r</cmt>
<desc>Fize-le-Marsal Sentier n°18 Rue Martin Daenen</desc>
<link href="https://chemins.be/fizelemarsal/sentier/18"/><trkseg>
<trkpt lat="50.702312" lon="5.393420"><time>2026-05-02T23:07:47Z</time></trkpt>
<trkpt lat="50.702706" lon="5.392683"><time>2026-05-02T23:17:47Z</time></trkpt>
</trkseg></trk>
<trk>
<name>lcrfm18</name>
<cmt>q</cmt>
<desc>Fize-le-Marsal Sentier n°18 Rue Martin Daenen</desc>
<link href="https://chemins.be/fizelemarsal/sentier/18"/><trkseg>
<trkpt lat="50.702706" lon="5.392683"><time>2026-05-02T23:17:47Z</time></trkpt>
<trkpt lat="50.702060" lon="5.390022"><time>2026-05-02T23:27:47Z</time></trkpt>
<trkpt lat="50.702137" lon="5.389114"><time>2026-05-02T23:37:47Z</time></trkpt>
<trkpt lat="50.701657" lon="5.388399"><time>2026-05-02T23:47:47Z</time></trkpt>
<trkpt lat="50.701571" lon="5.387905"><time>2026-05-02T23:57:47Z</time></trkpt>
<trkpt lat="50.701222" lon="5.386975"><time>2026-05-03T00:07:47Z</time></trkpt>
</trkseg>
</trk>
<trk>
<name>lcrfm19</name>
<cmt>q</cmt>
<desc>Fize-le-Marsal Sentier n°19 </desc>
<link href="https://chemins.be/fizelemarsal/sentier/19"/><trkseg>
<trkpt lat="50.700686" lon="5.391866"><time>2026-05-02T22:57:47Z</time></trkpt>
<trkpt lat="50.703585" lon="5.391380"><time>2026-05-02T23:07:47Z</time></trkpt>
</trkseg>
</trk>
<trk>
<name>lcrfm2</name>
<cmt>s</cmt>
<desc>Fize-le-Marsal Chemin n°2 </desc>
<link href="https://chemins.be/fizelemarsal/chemin/2"/><trkseg>
<trkpt lat="50.705413" lon="5.382265"><time>2026-05-02T22:57:47Z</time></trkpt>
<trkpt lat="50.704782" lon="5.376831"><time>2026-05-02T23:07:47Z</time></trkpt>
<trkpt lat="50.702648" lon="5.372089"><time>2026-05-02T23:17:47Z</time></trkpt>
<trkpt lat="50.701221" lon="5.369364"><time>2026-05-02T23:27:47Z</time></trkpt>
<trkpt lat="50.700798" lon="5.367350"><time>2026-05-02T23:37:47Z</time></trkpt>
</trkseg>
</trk>
<trk>
<name>lcrfm20</name>
<cmt>q</cmt>
<desc>Fize-le-Marsal Sentier n°20 </desc>
<link href="https://chemins.be/fizelemarsal/sentier/20"/><trkseg>
<trkpt lat="50.704198" lon="5.395590"><time>2026-05-02T22:57:47Z</time></trkpt>
<trkpt lat="50.704431" lon="5.395751"><time>2026-05-02T23:07:47Z</time></trkpt>
<trkpt lat="50.706144" lon="5.397871"><time>2026-05-02T23:17:47Z</time></trkpt>
<trkpt lat="50.707251" lon="5.399780"><time>2026-05-02T23:27:47Z</time></trkpt>
</trkseg>
</trk>
<trk>
<name>lcrfm21</name>
<cmt>r</cmt>
<desc>Fize-le-Marsal Chemin n°21 </desc>
<link href="https://chemins.be/fizelemarsal/chemin/21"/><trkseg>
<trkpt lat="50.706855" lon="5.381117"><time>2026-05-02T22:57:47Z</time></trkpt>
<trkpt lat="50.707173" lon="5.380758"><time>2026-05-02T23:07:47Z</time></trkpt>
</trkseg></trk>
<trk>
<name>lcrfm21</name>
<cmt>s</cmt>
<desc>Fize-le-Marsal Chemin n°21 </desc>
<link href="https://chemins.be/fizelemarsal/chemin/21"/><trkseg>
<trkpt lat="50.707173" lon="5.380758"><time>2026-05-02T23:07:47Z</time></trkpt>
<trkpt lat="50.708930" lon="5.379074"><time>2026-05-02T23:17:47Z</time></trkpt>
<trkpt lat="50.710513" lon="5.376842"><time>2026-05-02T23:27:47Z</time></trkpt>
<trkpt lat="50.712225" lon="5.375930"><time>2026-05-02T23:37:47Z</time></trkpt>
<trkpt lat="50.715526" lon="5.372336"><time>2026-05-02T23:47:47Z</time></trkpt>
</trkseg>
</trk>
<trk>
<name>lcrfm22</name>
<cmt>s</cmt>
<desc>Fize-le-Marsal Chemin n°22 </desc>
<link href="https://chemins.be/fizelemarsal/chemin/22"/><trkseg>
<trkpt lat="50.702017" lon="5.366183"><time>2026-05-02T22:57:47Z</time></trkpt>
<trkpt lat="50.700586" lon="5.366226"><time>2026-05-02T23:07:47Z</time></trkpt>
</trkseg>
</trk>
<trk>
<name>lcrfm23</name>
<cmt>r</cmt>
<desc>Fize-le-Marsal Sentier n°23 Rue Burette</desc>
<link href="https://chemins.be/fizelemarsal/sentier/23"/><trkseg>
<trkpt lat="50.704026" lon="5.395473"><time>2026-05-02T22:57:47Z</time></trkpt>
<trkpt lat="50.703442" lon="5.396674"><time>2026-05-02T23:07:47Z</time></trkpt>
<trkpt lat="50.702903" lon="5.398183"><time>2026-05-02T23:17:47Z</time></trkpt>
</trkseg>
</trk>
<trk>
<name>lcrfm24</name>
<cmt>r</cmt>
<desc>Fize-le-Marsal Chemin/sentier n°24 </desc>
<link href="https://chemins.be/fizelemarsal/chemin/24"/><trkseg>
<trkpt lat="50.703027" lon="5.384840"><time>2026-05-02T22:57:47Z</time></trkpt>
<trkpt lat="50.702555" lon="5.383971"><time>2026-05-02T23:07:47Z</time></trkpt>
<trkpt lat="50.702891" lon="5.382802"><time>2026-05-02T23:17:47Z</time></trkpt>
</trkseg></trk>
<trk>
<name>lcrfm24</name>
<cmt>q</cmt>
<desc>Fize-le-Marsal Chemin/sentier n°24 </desc>
<link href="https://chemins.be/fizelemarsal/chemin/24"/><trkseg>
<trkpt lat="50.702891" lon="5.382802"><time>2026-05-02T23:17:47Z</time></trkpt>
<trkpt lat="50.702327" lon="5.381885"><time>2026-05-02T23:27:47Z</time></trkpt>
<trkpt lat="50.701868" lon="5.381284"><time>2026-05-02T23:37:47Z</time></trkpt>
</trkseg>
</trk>
<trk>
<name>lcrfm25</name>
<cmt>v</cmt>
<desc>Fize-le-Marsal Sentier n°25 </desc>
<link href="https://chemins.be/fizelemarsal/sentier/25"/><trkseg>
<trkpt lat="50.701719" lon="5.386132"><time>2026-05-02T22:57:47Z</time></trkpt>
<trkpt lat="50.701246" lon="5.386007"><time>2026-05-02T23:07:47Z</time></trkpt>
</trkseg></trk>
<trk>
<name>lcrfm25</name>
<cmt>q</cmt>
<desc>Fize-le-Marsal Sentier n°25 </desc>
<link href="https://chemins.be/fizelemarsal/sentier/25"/><trkseg>
<trkpt lat="50.701246" lon="5.386007"><time>2026-05-02T23:07:47Z</time></trkpt>
<trkpt lat="50.700423" lon="5.385256"><time>2026-05-02T23:17:47Z</time></trkpt>
<trkpt lat="50.700185" lon="5.385595"><time>2026-05-02T23:27:47Z</time></trkpt>
<trkpt lat="50.699745" lon="5.384760"><time>2026-05-02T23:37:47Z</time></trkpt>
<trkpt lat="50.699576" lon="5.383987"><time>2026-05-02T23:47:47Z</time></trkpt>
<trkpt lat="50.696610" lon="5.379739"><time>2026-05-02T23:57:47Z</time></trkpt>
</trkseg>
</trk>
<trk>
<name>lcrfm26</name>
<cmt>q</cmt>
<desc>Fize-le-Marsal Sentier n°26 </desc>
<link href="https://chemins.be/fizelemarsal/sentier/26"/><trkseg>
<trkpt lat="50.700212" lon="5.385588"><time>2026-05-02T22:57:47Z</time></trkpt>
<trkpt lat="50.698300" lon="5.388921"><time>2026-05-02T23:07:47Z</time></trkpt>
</trkseg>
</trk>
<trk>
<name>lcrfm27</name>
<cmt>q</cmt>
<desc>Fize-le-Marsal Sentier n°27 </desc>
<link href="https://chemins.be/fizelemarsal/sentier/27"/><trkseg>
<trkpt lat="50.702470" lon="5.385382"><time>2026-05-02T22:57:47Z</time></trkpt>
<trkpt lat="50.702368" lon="5.384417"><time>2026-05-02T23:07:47Z</time></trkpt>
<trkpt lat="50.702545" lon="5.383955"><time>2026-05-02T23:17:47Z</time></trkpt>
</trkseg>
</trk>
<trk>
<name>lcrfm5</name>
<cmt>q</cmt>
<desc>Fize-le-Marsal Chemin n°5 </desc>
<link href="https://chemins.be/fizelemarsal/chemin/5"/><trkseg>
<trkpt lat="50.704153" lon="5.395637"><time>2026-05-02T22:57:47Z</time></trkpt>
<trkpt lat="50.703374" lon="5.398541"><time>2026-05-02T23:07:47Z</time></trkpt>
</trkseg>
</trk>
<trk>
<name>lcrfm7</name>
<cmt>r</cmt>
<desc>Fize-le-Marsal Chemin n°7 Rue Martin Daenen</desc>
<link href="https://chemins.be/fizelemarsal/chemin/7"/><trkseg>
<trkpt lat="50.702248" lon="5.393481"><time>2026-05-02T22:57:47Z</time></trkpt>
<trkpt lat="50.702868" lon="5.392532"><time>2026-05-02T23:07:47Z</time></trkpt>
<trkpt lat="50.703633" lon="5.391387"><time>2026-05-02T23:17:47Z</time></trkpt>
</trkseg>
</trk>
<trk>
<name>lcrfm8</name>
<cmt>r</cmt>
<desc>Fize-le-Marsal Chemin n°8 Rue du Tilleul</desc>
<link href="https://chemins.be/fizelemarsal/chemin/8"/><trkseg>
<trkpt lat="50.699311" lon="5.391124"><time>2026-05-02T22:57:47Z</time></trkpt>
<trkpt lat="50.699667" lon="5.391485"><time>2026-05-02T23:07:47Z</time></trkpt>
<trkpt lat="50.700187" lon="5.391624"><time>2026-05-02T23:17:47Z</time></trkpt>
<trkpt lat="50.700867" lon="5.392021"><time>2026-05-02T23:27:47Z</time></trkpt>
<trkpt lat="50.702257" lon="5.393425"><time>2026-05-02T23:37:47Z</time></trkpt>
<trkpt lat="50.703975" lon="5.395430"><time>2026-05-02T23:47:47Z</time></trkpt>
</trkseg></trk>
<trk>
<name>lcrfm8</name>
<cmt>v</cmt>
<desc>Fize-le-Marsal Chemin n°8 Rue du Tilleul</desc>
<link href="https://chemins.be/fizelemarsal/chemin/8"/><trkseg>
<trkpt lat="50.703975" lon="5.395430"><time>2026-05-02T23:47:47Z</time></trkpt>
<trkpt lat="50.704153" lon="5.395618"><time>2026-05-02T23:57:47Z</time></trkpt>
</trkseg>
</trk>
</gpx>